User: anonymous
Location: Lawrence Hall of Science
(37.8785°N, 122.2415°W)
Time: 04:38:46
(UTC-07:00)
Language:

Cosmos 2098 Rocket - Orbit

View from above orbital plane
View from above orbital plane
View from above satellite
View from above satellite

Ground track
Ground track

The orbit data is extracted from the following two-line orbital elements,

1 20775U 90078B   14244.45890234  .00002922  00000-0  15911-3 0  4883
2 20775 082.9362 158.2079 0636720 222.3001 233.4343 14.18654248203425
Epoch (UTC): 01 September 2014 11:00:49
Eccentricity: 0.0636720
inclination: 82.9362°
perigee height: 371 km
apogee height: 1289 km
right ascension of ascending node: 158.2079°
argument of perigee: 222.3001°
revolutions per day: 14.18654248
mean anomaly at epoch: 233.4343°
orbit number at epoch: 20342

The dashed part of the orbit path shows where the satellite is in the earth's shadow,  

DLR